Home > Weather > Helsinki > Past weeks

Flag for Finland Past Weather in Helsinki, Finland — Yesterday and Last 2 Weeks

Now
57 °F

Broken clouds.


Feels Like: 55 °F
Forecast: 54 / 61 °F
Wind: 8 mph from East

Location: Helsinki Malmi Airport

Current Time: Aug 29, 2016 at 10:20:55 AM

Latest Report: Aug 29, 2016 at 9:50 AM


Visibility: N/A

Pressure: 29.86 "Hg

Humidity: 94%

Dew Point: 55 °F

Location of HelsinkiLocation

Past Weather in Helsinki — Graph

°F

Helsinki Temperature Yesterday

Maximum temperature yesterday: 63 °F (at 12:20 PM)
Minimum temperature yesterday: 50 °F (at 4:50 AM)
Average temperature yesterday: 57 °F

High & Low Weather Summary for the Past Weeks

 TemperatureHumidityPressure
High73 °F (Aug 21, 4:50 PM)100% (Aug 14, 9:50 AM)30.21 "Hg (Aug 14, 9:50 AM)
Low48 °F (Aug 15, 6:20 AM)43% (Aug 27, 7:20 PM)29.62 "Hg (Aug 17, 5:20 AM)
Average61 °F84%29.95 "Hg
* Reported Aug 14 9:20 AM — Aug 29 9:20 AM, Helsinki, Weather by CustomWeather, © 2016

Note: Actual official high and low records may vary slightly from our data, if they occured in-between our weather recording intervals... More about our weather records

Advertising

Helsinki Weather History for the Previous 24 Hours

Scroll right to see more
 ConditionsComfort  
Time TempWeatherWind HumidityBarometerVisibility
9:20 AM
Mon, Aug 29
59 °FBroken clouds.7 mph88%29.86 "HgN/A
8:50 AM57 °FPartly sunny.5 mph94%29.89 "HgN/A
8:20 AM57 °FPartly sunny.5 mph94%29.89 "HgN/A
7:50 AM57 °FSunny.3 mph94%29.92 "Hg10 mi
7:20 AM55 °FOvercast.5 mph100%29.92 "HgN/A
6:50 AM55 °FLight rain. Overcast.5 mph94%29.92 "HgN/A
6:20 AM55 °FLight rain. Overcast.1 mph94%29.95 "HgN/A
5:50 AM55 °FLight rain. Overcast.2 mph94%29.95 "HgN/A
5:20 AM55 °FDrizzle. Mostly cloudy.2 mph94%29.95 "HgN/A
4:50 AM55 °FDrizzle. Overcast.2 mph94%29.98 "HgN/A
4:20 AM55 °FLight rain. Mostly cloudy.3 mph94%29.98 "HgN/A
3:50 AM55 °FClear.2 mph94%29.98 "Hg10 mi
3:20 AM55 °FClear.2 mph94%29.98 "Hg10 mi
2:50 AM55 °FClear.1 mph94%30.01 "Hg10 mi
2:20 AM55 °FClear.3 mph94%30.01 "Hg10 mi
1:50 AM54 °FClear.2 mph100%30.04 "Hg10 mi
1:20 AM52 °FPassing clouds.No wind100%30.04 "Hg3 mi
12:50 AM54 °FClear.1 mph94%30.04 "Hg10 mi
12:20 AM54 °FOvercast.1 mph100%30.04 "Hg4 mi
11:50 PM
Sun, Aug 28
55 °FOvercast.1 mph88%30.04 "Hg6 mi
11:20 PM54 °FClear.1 mph100%30.04 "Hg10 mi
10:50 PM54 °FClear.No wind100%30.04 "Hg10 mi
10:20 PM55 °FClear.No wind94%30.07 "Hg10 mi
9:50 PM57 °FClear.2 mph88%30.07 "Hg10 mi
9:20 PM57 °FSunny.No wind88%30.07 "Hg10 mi
8:50 PM57 °FSunny.No wind88%30.07 "Hg10 mi
8:20 PM59 °FSunny.1 mph82%30.07 "Hg10 mi
7:50 PM59 °FSunny.1 mph82%30.09 "Hg10 mi
7:20 PM61 °FSunny.3 mph77%30.07 "Hg10 mi
6:50 PM61 °FPartly sunny.5 mph72%30.09 "HgN/A
6:20 PM61 °FBroken clouds.5 mph77%30.09 "HgN/A
5:50 PM61 °FPartly sunny.6 mph68%30.09 "HgN/A
5:20 PM63 °FPartly sunny.6 mph68%30.09 "HgN/A
4:50 PM63 °FPartly sunny.6 mph68%30.09 "HgN/A
4:20 PM63 °FPartly sunny.3 mph59%30.09 "HgN/A
3:50 PM63 °FPartly sunny.2 mph56%30.09 "HgN/A
3:20 PM63 °FPartly sunny.6 mph52%30.09 "HgN/A
2:50 PM63 °FBroken clouds.6 mph52%30.09 "HgN/A
2:20 PM63 °FBroken clouds.6 mph56%30.12 "HgN/A
1:50 PM63 °FBroken clouds.5 mph52%30.12 "HgN/A
1:20 PM63 °FBroken clouds.6 mph56%30.12 "HgN/A
12:50 PM61 °FBroken clouds.7 mph59%30.12 "HgN/A
12:20 PM63 °FScattered clouds.7 mph59%30.09 "HgN/A
11:50 AM61 °FScattered clouds.10 mph59%30.09 "HgN/A
11:20 AM61 °FScattered clouds.8 mph63%30.09 "HgN/A
10:50 AM59 °FPassing clouds.9 mph63%30.09 "HgN/A
10:20 AM59 °FPassing clouds.6 mph68%30.09 "HgN/A
Weather by CustomWeather, © 2016

See weather overviewHow to use our weather pages